Grinnell, IA

8:46 PM CDT on April 30, 2017 (GMT -0500)
Grinnell Regional

Weather History for KGGI - April, 2014

Change the Weather History Date:

Wednesday, April 9, 2014

  Actual Average (KTNU) Record (KTNU)
Temperature  
Mean Temperature 50 °F -  
Max Temperature 70 °F 57 °F 85 °F (1977)
Min Temperature 30 °F 34 °F 18 °F (1982)
Degree Days  
Heating Degree Days 15    
Moisture  
Dew Point 30 °F    
Average Humidity 51    
Maximum Humidity 90    
Minimum Humidity 20    
Precipitation  
Precipitation 0.00 in - - ()
Sea Level Pressure  
Sea Level Pressure 29.91 in    
Wind  
Wind Speed 10 mph (SSW)    
Max Wind Speed 26 mph    
Max Gust Speed 34 mph    
Visibility 10 miles    
Events      
Averages and records for this station are not official NWS values.
T = Trace of Precipitation, MM = Missing Value Source: NWS Daily Summary

Daily Weather History Graph

Daily Weather History Graph

Search for Another Location

Airport or City:

Trip Planner

Search our weather history database for the weather conditions in past years. The results will help you decide how hot, cold, wet, or windy it might be!

Date:

Astronomy

Apr. 09, 2014 Rise Set
Actual Time 6:40 AM CDT 7:45 PM CDT
Civil Twilight 6:12 AM CDT 8:13 PM CDT
Nautical Twilight 5:38 AM CDT 8:47 PM CDT
Astronomical Twilight 5:02 AM CDT 9:23 PM CDT
Moon 2:29 PM CDT (4/9) 3:34 AM CDT (4/9)
Length of Visible Light 14h 01m
Length of Day
13h 04m
Waxing Gibbous, 72% of the Moon is Illuminated
Apr 9
Waxing Gibbous
Apr 15
Full
Apr 22
Last Quarter
Apr 29
New
May 6
First Quarter

Hourly Weather History & Observations

Time (CDT) Temp. Windchill Dew Point Humidity Pressure Visibility Wind Dir Wind Speed Gust Speed Precip Events Conditions
12:35 AM 36.9 °F 33.1 °F 31.3 °F 80% 30.04 in 10.0 mi WNW 4.6 mph - N/A   Clear
12:55 AM 37.4 °F 33.8 °F 31.3 °F 79% 30.03 in 10.0 mi NW 4.6 mph - N/A   Clear
1:15 AM 37.4 °F 34.9 °F 31.3 °F 79% 30.03 in 10.0 mi NW 3.5 mph - N/A   Clear
1:35 AM 36.3 °F 33.7 °F 30.7 °F 80% 30.03 in 10.0 mi West 3.5 mph - N/A   Clear
1:55 AM 36.1 °F 32.3 °F 30.9 °F 81% 30.03 in 10.0 mi West 4.6 mph - N/A   Clear
2:15 AM 36.5 °F 33.9 °F 31.1 °F 81% 30.03 in 10.0 mi West 3.5 mph - N/A   Clear
2:35 AM 35.8 °F 31.9 °F 30.9 °F 82% 30.03 in 10.0 mi West 4.6 mph - N/A   Clear
2:55 AM 32.4 °F 27.9 °F 28.9 °F 87% 30.03 in 10.0 mi WSW 4.6 mph - N/A   Clear
3:15 AM 31.3 °F 24.7 °F 28.6 °F 90% 30.03 in 10.0 mi West 6.9 mph - N/A   Clear
3:35 AM 32.2 °F 26.7 °F 29.3 °F 89% 30.03 in 10.0 mi West 5.8 mph - N/A   Clear
3:55 AM 32.0 °F 26.4 °F 28.9 °F 88% 30.02 in 10.0 mi WSW 5.8 mph - N/A   Clear
4:15 AM 31.3 °F 25.6 °F 28.6 °F 90% 30.02 in 10.0 mi West 5.8 mph - N/A   Clear
4:35 AM 32.0 °F 27.5 °F 28.9 °F 88% 30.03 in 10.0 mi WSW 4.6 mph - N/A   Clear
4:55 AM 33.3 °F 27.9 °F 30.2 °F 89% 30.03 in 10.0 mi West 5.8 mph - N/A   Clear
5:15 AM 32.7 °F 28.3 °F 29.5 °F 88% 30.04 in 10.0 mi West 4.6 mph - N/A   Clear
5:35 AM 31.8 °F 26.2 °F 28.0 °F 86% 30.04 in 10.0 mi WSW 5.8 mph - N/A   Clear
5:55 AM 30.0 °F 24.1 °F 27.3 °F 90% 30.04 in 10.0 mi WSW 5.8 mph - N/A   Clear
6:15 AM 30.7 °F - 28.0 °F 90% 30.04 in 10.0 mi Calm Calm - N/A   Clear
6:35 AM 30.7 °F 24.9 °F 27.1 °F 86% 30.04 in 10.0 mi WSW 5.8 mph - N/A   Clear
6:55 AM 31.8 °F 25.4 °F 28.2 °F 87% 30.04 in 10.0 mi SW 6.9 mph - N/A   Clear
7:15 AM 31.3 °F 24.7 °F 28.2 °F 88% 30.04 in 10.0 mi SW 6.9 mph - N/A   Clear
7:35 AM 32.5 °F 27.1 °F 29.5 °F 88% 30.05 in 10.0 mi SW 5.8 mph - N/A   Clear
7:55 AM 35.1 °F 30.1 °F 30.7 °F 84% 30.05 in 10.0 mi SW 5.8 mph - N/A   Clear
8:15 AM 37.0 °F 31.0 °F 30.9 °F 79% 30.05 in 10.0 mi SSW 8.1 mph - N/A   Clear
8:35 AM 40.3 °F 34.4 °F 32.2 °F 73% 30.04 in 10.0 mi SSW 9.2 mph - N/A   Clear
8:55 AM 42.8 °F 37.5 °F 32.9 °F 68% 30.04 in 10.0 mi SSW 9.2 mph - N/A   Clear
9:15 AM 44.8 °F 39.0 °F 33.6 °F 65% 30.04 in 10.0 mi SSW 11.5 mph - N/A   Clear
9:35 AM 46.8 °F - 34.0 °F 61% 30.03 in 10.0 mi SSW 11.5 mph - N/A   Clear
9:55 AM 48.7 °F - 32.4 °F 53% 30.03 in 10.0 mi SSW 12.7 mph - N/A   Clear
10:15 AM 50.9 °F - 31.6 °F 48% 30.01 in 10.0 mi SSW 13.8 mph 19.6 mph N/A   Clear
10:35 AM 52.5 °F - 30.6 °F 43% 30.01 in 10.0 mi SSW 16.1 mph 20.7 mph N/A   Clear
10:55 AM 53.4 °F - 29.5 °F 40% 30.00 in 10.0 mi SSW 16.1 mph 20.7 mph N/A   Clear
11:15 AM 55.8 °F - 27.3 °F 34% 29.99 in 10.0 mi SSW 15.0 mph 20.7 mph N/A   Clear
11:35 AM 57.6 °F - 26.6 °F 31% 29.97 in 10.0 mi South 16.1 mph 21.9 mph N/A   Clear
11:55 AM 59.0 °F - 25.2 °F 27% 29.96 in 10.0 mi South 12.7 mph 21.9 mph N/A   Clear
12:15 PM 60.4 °F - 24.8 °F 26% 29.94 in 10.0 mi South 15.0 mph 26.5 mph N/A   Clear
12:35 PM 61.7 °F - 24.6 °F 24% 29.93 in 10.0 mi South 18.4 mph 25.3 mph N/A   Clear
12:55 PM 63.5 °F - 24.6 °F 23% 29.91 in 10.0 mi South 19.6 mph 26.5 mph N/A   Clear
1:15 PM 64.2 °F - 25.7 °F 23% 29.91 in 10.0 mi South 17.3 mph 25.3 mph N/A   Clear
1:35 PM 65.3 °F - 24.8 °F 22% 29.89 in 10.0 mi South 21.9 mph 25.3 mph N/A   Clear
1:55 PM 66.2 °F - 25.2 °F 21% 29.88 in 10.0 mi SSW 16.1 mph 26.5 mph N/A   Clear
2:20 PM 67.5 °F - 25.2 °F 20% 29.86 in - South 21.9 mph - N/A   Unknown
2:55 PM 68.9 °F - 25.9 °F 20% 29.84 in 10.0 mi SSW 20.7 mph 27.6 mph N/A   Clear
3:15 PM 69.3 °F - 26.4 °F 20% 29.82 in 10.0 mi South 18.4 mph 33.4 mph N/A   Clear
3:35 PM 69.4 °F - 27.1 °F 21% 29.81 in 10.0 mi South 19.6 mph 34.5 mph N/A   Clear
3:55 PM 70.3 °F - 27.7 °F 20% 29.80 in 10.0 mi South 24.2 mph 32.2 mph N/A   Clear
4:15 PM 70.0 °F - 27.3 °F 20% 29.79 in 10.0 mi SSW 24.2 mph 29.9 mph N/A   Clear
4:35 PM 70.2 °F - 27.7 °F 21% 29.78 in 10.0 mi SSW 25.3 mph 32.2 mph N/A   Clear
4:55 PM 69.6 °F - 28.0 °F 21% 29.78 in 10.0 mi SSW 20.7 mph 29.9 mph N/A   Clear
5:15 PM 68.9 °F - 28.2 °F 22% 29.77 in 10.0 mi South 23.0 mph 28.8 mph N/A   Clear
5:35 PM 69.6 °F - 28.8 °F 22% 29.77 in 10.0 mi SSW 18.4 mph 26.5 mph N/A   Clear
5:55 PM 70.0 °F - 28.6 °F 21% 29.77 in 10.0 mi SSW 26.5 mph 32.2 mph N/A   Clear
6:15 PM 69.6 °F - 29.3 °F 22% 29.77 in 10.0 mi South 19.6 mph 27.6 mph N/A   Clear
6:35 PM 68.2 °F - 29.7 °F 24% 29.76 in 10.0 mi SSW 17.3 mph 27.6 mph N/A   Clear
6:55 PM 66.7 °F - 30.6 °F 26% 29.76 in 10.0 mi South 16.1 mph - N/A   Clear
7:15 PM 66.0 °F - 31.1 °F 27% 29.76 in 10.0 mi SSW 13.8 mph - N/A   Clear
7:35 PM 65.3 °F - 31.1 °F 28% 29.76 in 10.0 mi SSW 13.8 mph - N/A   Clear
7:55 PM 63.7 °F - 31.8 °F 30% 29.76 in 10.0 mi South 13.8 mph - N/A   Clear
8:15 PM 61.9 °F - 32.0 °F 33% 29.76 in 10.0 mi South 13.8 mph - N/A   Clear
8:35 PM 60.8 °F - 32.0 °F 34% 29.75 in 10.0 mi South 16.1 mph 21.9 mph N/A   Clear
8:55 PM 60.4 °F - 32.2 °F 35% 29.75 in 10.0 mi South 16.1 mph - N/A   Clear
9:15 PM 59.9 °F - 32.7 °F 36% 29.75 in 10.0 mi South 13.8 mph - N/A   Clear
9:35 PM 59.4 °F - 33.1 °F 37% 29.75 in 10.0 mi South 15.0 mph - N/A   Clear
9:55 PM 58.6 °F - 33.4 °F 39% 29.75 in 10.0 mi South 13.8 mph - N/A   Clear
10:15 PM 58.1 °F - 33.8 °F 40% 29.75 in 10.0 mi South 15.0 mph - N/A   Clear
10:35 PM 58.1 °F - 33.8 °F 40% 29.74 in 10.0 mi South 13.8 mph - N/A   Clear
10:55 PM 57.2 °F - 34.0 °F 42% 29.73 in 10.0 mi South 12.7 mph - N/A   Clear
11:15 PM 56.3 °F - 34.2 °F 43% 29.72 in 10.0 mi South 12.7 mph - N/A   Clear
11:35 PM 55.4 °F - 34.5 °F 45% 29.72 in 10.0 mi South 12.7 mph - N/A   Clear
11:55 PM 55.4 °F - 34.7 °F 46% 29.71 in 10.0 mi South 12.7 mph - N/A   Clear